Altus, OK

4:59 PM CDT on August 25, 2016 (GMT -0500)
Altus Air Force Base

Weather History for KLTS - June, 2013

Change the Weather History Date:

Monday, June 10, 2013

  Actual Average Record
Temperature  
Mean Temperature 82 °F -  
Max Temperature 101 °F 88 °F 105 °F (2012)
Min Temperature 64 °F 65 °F 56 °F (2008)
Cooling Degree Days 18    
Growing Degree Days 32 (Base 50)    
Moisture  
Dew Point 60 °F    
Average Humidity 51    
Maximum Humidity 100    
Minimum Humidity 17    
Precipitation  
Precipitation 0.00 in - - ()
Sea Level Pressure  
Sea Level Pressure 29.87 in    
Wind  
Wind Speed 10 mph (South)    
Max Wind Speed 22 mph    
Max Gust Speed 30 mph    
Visibility 10 miles    
Events      
Averages and records for this station are not official NWS values.
T = Trace of Precipitation, MM = Missing Value Source: NWS Daily Summary

Daily Weather History Graph

Daily Weather History Graph

Search for Another Location

Airport or City:

Trip Planner

Search our weather history database for the weather conditions in past years. The results will help you decide how hot, cold, wet, or windy it might be!

Date:

Astronomy

Jun. 10, 2013 Rise Set
Actual Time 6:23 AM CDT 8:49 PM CDT
Civil Twilight 5:54 AM CDT 9:19 PM CDT
Nautical Twilight 5:17 AM CDT 9:55 PM CDT
Astronomical Twilight 4:38 AM CDT 10:35 PM CDT
Moon 8:10 AM CDT (6/10) 10:21 PM CDT (6/10)
Length of Visible Light 15h 25m
Length of Day
14h 26m
Waxing Crescent, 4% of the Moon is Illuminated
Jun 10
Waxing Crescent
Jun 16
First Quarter
Jun 23
Full
Jun 29
Last Quarter
Jul 8
New

Hourly Weather History & Observations

Time (CDT) Temp. Heat Index Dew Point Humidity Pressure Visibility Wind Dir Wind Speed Gust Speed Precip Events Conditions
12:58 AM 68.4 °F - 64.8 °F 88% 29.88 in 10.0 mi South 6.9 mph - N/A   Clear
1:58 AM 69.6 °F - 64.6 °F 84% 29.87 in 10.0 mi South 8.1 mph - N/A   Clear
2:58 AM 69.3 °F - 64.2 °F 84% 29.87 in 10.0 mi SSE 4.6 mph - N/A   Clear
3:58 AM 68.4 °F - 64.0 °F 86% 29.88 in 10.0 mi Calm Calm - N/A   Clear
4:58 AM 66.6 °F - 63.9 °F 91% 29.88 in 10.0 mi SE 3.5 mph - N/A   Clear
5:58 AM 64.9 °F - 64.9 °F 100% 29.89 in 10.0 mi SE 3.5 mph - N/A   Clear
6:58 AM 64.9 °F - 64.9 °F 100% 29.90 in 10.0 mi SE 3.5 mph - N/A   Clear
7:58 AM 70.9 °F - 67.1 °F 88% 29.91 in 10.0 mi South 5.8 mph - N/A   Clear
8:58 AM 78.6 °F - 66.0 °F 65% 29.92 in 10.0 mi SSW 10.4 mph - N/A   Clear
9:58 AM 85.5 °F 87.6 °F 66.0 °F 52% 29.92 in 10.0 mi SSW 15.0 mph 21.9 mph N/A   Clear
10:58 AM 90.1 °F 92.0 °F 64.9 °F 43% 29.92 in 10.0 mi SSW 17.3 mph 21.9 mph N/A   Clear
11:58 AM 93.4 °F 94.3 °F 62.8 °F 36% 29.89 in 10.0 mi SW 18.4 mph - N/A   Clear
12:58 PM 96.4 °F 96.1 °F 59.7 °F 29% 29.87 in 10.0 mi South 20.7 mph 27.6 mph N/A   Clear
1:58 PM 98.6 °F 98.5 °F 59.0 °F 27% 29.85 in 10.0 mi South 19.6 mph 26.5 mph N/A   Partly Cloudy
2:14 PM 98.6 °F 99.4 °F 60.8 °F 29% 29.91 in - SW 15.0 mph - N/A   Partly Cloudy
2:38 PM 100.4 °F 100.2 °F 59.0 °F 25% 29.90 in 10.0 mi SSW 12.7 mph 26.5 mph N/A   Partly Cloudy
2:58 PM 100.2 °F 100.5 °F 59.2 °F 26% 29.85 in 10.0 mi South 18.4 mph 21.9 mph N/A   Clear
3:58 PM 100.8 °F 100.3 °F 57.4 °F 24% 29.84 in 10.0 mi SSW 15.0 mph 24.2 mph N/A   Clear
4:58 PM 101.3 °F - 50.9 °F 18% 29.82 in 10.0 mi South 19.6 mph 29.9 mph N/A   Clear
5:58 PM 100.6 °F - 48.0 °F 17% 29.81 in 10.0 mi South 18.4 mph 24.2 mph N/A   Clear
6:58 PM 99.0 °F - 52.0 °F 21% 29.80 in 10.0 mi South 21.9 mph 27.6 mph N/A   Clear
7:58 PM 96.1 °F - 52.2 °F 23% 29.80 in 10.0 mi South 17.3 mph - N/A   Clear
8:58 PM 88.7 °F 86.5 °F 53.2 °F 30% 29.82 in 10.0 mi South 12.7 mph - N/A   Clear
9:58 PM 81.9 °F 81.4 °F 55.8 °F 41% 29.84 in 10.0 mi SSE 9.2 mph - N/A   Clear
10:58 PM 76.5 °F - 57.7 °F 52% 29.87 in 10.0 mi SSE 9.2 mph - N/A   Clear
11:58 PM 79.5 °F - 56.8 °F 46% 29.88 in 10.0 mi South 12.7 mph - N/A   Clear